Hourly Weather Mateevichi

Today, 16 June, Wednesday

Time Temperature Precipitation Wind Pressure Humidity
00:00 +16°C° 0 mm 2 mps 750 mmHg 90%
01:00 +16°C° 0 mm 2 mps 750 mmHg 91%
02:00 +16°C° 0 mm 2 mps 750 mmHg 93%
03:00 +15°C° 0 mm 2 mps 750 mmHg 93%
04:00 +15°C° 0 mm 2 mps 750 mmHg 94%
05:00 +14°C° 0 mm 2 mps 750 mmHg 95%
06:00 +15°C° 0 mm 2 mps 750 mmHg 85%
07:00 +16°C° 0 mm 3 mps 751 mmHg 75%
08:00 +17°C° 0 mm 3 mps 751 mmHg 65%
09:00 +18°C° 0 mm 3 mps 751 mmHg 62%
10:00 +20°C° 0 mm 2 mps 751 mmHg 59%
11:00 +21°C° 0 mm 2 mps 751 mmHg 56%
12:00 +21°C° 0 mm 2 mps 751 mmHg 55%
13:00 +22°C° 0 mm 3 mps 751 mmHg 53%
14:00 +22°C° 0 mm 3 mps 751 mmHg 56%
15:00 +24°C° 0 mm 3 mps 751 mmHg 55%
16:00 +24°C° 0 mm 3 mps 751 mmHg 54%
17:00 +24°C° 0 mm 3 mps 751 mmHg 52%
18:00 +21°C° 0 mm 3 mps 751 mmHg 59%
19:00 +20°C° 0 mm 3 mps 751 mmHg 66%
20:00 +18°C° 0 mm 2 mps 751 mmHg 73%
21:00 +17°C° 0 mm 2 mps 752 mmHg 76%
22:00 +16°C° 0 mm 2 mps 752 mmHg 78%
23:00 +14°C° 0 mm 2 mps 752 mmHg 81%

Tomorrow, 17 June, Thursday

Time Temperature Precipitation Wind Pressure Humidity
00:00 +14°C° 0 mm 2 mps 752 mmHg 84%
01:00 +13°C° 0 mm 2 mps 753 mmHg 86%
02:00 +13°C° 0 mm 2 mps 753 mmHg 89%
03:00 +13°C° 0 mm 2 mps 753 mmHg 89%
04:00 +13°C° 0 mm 2 mps 753 mmHg 89%
05:00 +13°C° 0 mm 2 mps 753 mmHg 89%
06:00 +15°C° 0 mm 2 mps 753 mmHg 82%
07:00 +17°C° 0 mm 2 mps 753 mmHg 74%
08:00 +19°C° 0 mm 2 mps 754 mmHg 67%
09:00 +20°C° 0 mm 3 mps 754 mmHg 64%
10:00 +22°C° 0 mm 3 mps 754 mmHg 60%
11:00 +24°C° 0 mm 3 mps 754 mmHg 56%
12:00 +25°C° 0 mm 3 mps 754 mmHg 54%
13:00 +25°C° 0 mm 3 mps 754 mmHg 52%
14:00 +26°C° 0 mm 3 mps 754 mmHg 50%
15:00 +26°C° 0 mm 3 mps 754 mmHg 51%
16:00 +26°C° 0 mm 3 mps 754 mmHg 52%
17:00 +26°C° 0 mm 3 mps 754 mmHg 53%
18:00 +25°C° 0 mm 3 mps 754 mmHg 61%
19:00 +24°C° 0 mm 2 mps 754 mmHg 68%
20:00 +21°C° 0 mm 2 mps 754 mmHg 75%
21:00 +20°C° 0 mm 2 mps 754 mmHg 78%
22:00 +19°C° 0 mm 2 mps 754 mmHg 81%
23:00 +18°C° 0 mm 2 mps 754 mmHg 84%

Day after tomorrow, 18 June, Friday

Time Temperature Precipitation Wind Pressure Humidity
00:00 +17°C° 0 mm 2 mps 754 mmHg 86%
01:00 +17°C° 0 mm 3 mps 754 mmHg 88%
02:00 +17°C° 0 mm 3 mps 754 mmHg 90%
03:00 +16°C° 0 mm 3 mps 754 mmHg 90%
04:00 +16°C° 0 mm 3 mps 754 mmHg 90%
05:00 +16°C° 0 mm 2 mps 754 mmHg 90%
06:00 +18°C° 0 mm 3 mps 754 mmHg 83%
07:00 +20°C° 0 mm 3 mps 754 mmHg 77%
08:00 +22°C° 0 mm 4 mps 754 mmHg 70%
09:00 +23°C° 0 mm 4 mps 754 mmHg 66%
10:00 +25°C° 0 mm 4 mps 754 mmHg 62%
11:00 +26°C° 0 mm 4 mps 754 mmHg 58%
12:00 +27°C° 0 mm 4 mps 754 mmHg 56%
13:00 +27°C° 0 mm 4 mps 754 mmHg 53%
14:00 +28°C° 0 mm 4 mps 754 mmHg 51%
15:00 +28°C° 0 mm 4 mps 754 mmHg 53%
16:00 +27°C° 0 mm 4 mps 753 mmHg 54%
17:00 +27°C° 0 mm 4 mps 753 mmHg 55%
18:00 +26°C° 0 mm 3 mps 753 mmHg 63%
19:00 +24°C° 0 mm 3 mps 753 mmHg 71%
20:00 +22°C° 0 mm 3 mps 753 mmHg 78%
21:00 +21°C° 0 mm 3 mps 753 mmHg 79%
22:00 +19°C° 0 mm 3 mps 753 mmHg 80%
23:00 +18°C° 0 mm 3 mps 753 mmHg 81%

19 June, Saturday

Time Temperature Precipitation Wind Pressure Humidity
00:00 +18°C° 0 mm 3 mps 753 mmHg 84%
01:00 +18°C° 0 mm 3 mps 753 mmHg 88%
02:00 +17°C° 0 mm 3 mps 753 mmHg 91%
03:00 +17°C° 0 mm 3 mps 753 mmHg 91%
04:00 +17°C° 0 mm 2 mps 753 mmHg 92%
05:00 +17°C° 0 mm 2 mps 753 mmHg 92%
06:00 +19°C° 0 mm 3 mps 753 mmHg 87%
07:00 +21°C° 0 mm 3 mps 753 mmHg 82%
08:00 +22°C° 0 mm 4 mps 753 mmHg 76%
09:00 +25°C° 0 mm 4 mps 753 mmHg 72%
10:00 +26°C° 0 mm 4 mps 753 mmHg 67%
11:00 +27°C° 0 mm 4 mps 753 mmHg 62%
12:00 +28°C° 0 mm 4 mps 752 mmHg 59%
13:00 +29°C° 0 mm 4 mps 752 mmHg 55%
14:00 +29°C° 0 mm 4 mps 752 mmHg 52%
15:00 +29°C° 0 mm 4 mps 752 mmHg 53%
16:00 +29°C° 0 mm 4 mps 752 mmHg 53%
17:00 +29°C° 0 mm 4 mps 751 mmHg 54%
18:00 +28°C° 0 mm 3 mps 751 mmHg 61%
19:00 +26°C° 0 mm 3 mps 751 mmHg 68%
20:00 +25°C° 0 mm 3 mps 751 mmHg 74%
21:00 +22°C° 0 mm 3 mps 751 mmHg 78%
22:00 +21°C° 0 mm 3 mps 751 mmHg 81%
23:00 +20°C° 0 mm 3 mps 751 mmHg 84%

20 June, Sunday

Time Temperature Precipitation Wind Pressure Humidity
00:00 +19°C° 0 mm 3 mps 751 mmHg 87%
01:00 +19°C° 0 mm 3 mps 751 mmHg 89%
02:00 +18°C° 0 mm 2 mps 751 mmHg 92%
03:00 +18°C° 0 mm 2 mps 751 mmHg 93%
04:00 +18°C° 0 mm 2 mps 751 mmHg 93%
05:00 +17°C° 0 mm 2 mps 751 mmHg 94%
06:00 +19°C° 0 mm 3 mps 751 mmHg 88%
07:00 +21°C° 0 mm 3 mps 751 mmHg 81%
08:00 +22°C° 0 mm 4 mps 751 mmHg 75%
09:00 +25°C° 0 mm 4 mps 751 mmHg 70%
10:00 +26°C° 0 mm 4 mps 751 mmHg 64%
11:00 +27°C° 0 mm 5 mps 751 mmHg 59%
12:00 +28°C° 0 mm 4 mps 750 mmHg 56%
13:00 +29°C° 0 mm 4 mps 750 mmHg 52%
14:00 +29°C° 0 mm 4 mps 750 mmHg 49%
15:00 +29°C° 0 mm 4 mps 750 mmHg 53%
16:00 +29°C° 0 mm 4 mps 749 mmHg 56%
17:00 +28°C° 0 mm 3 mps 749 mmHg 60%
18:00 +27°C° 0 mm 3 mps 749 mmHg 65%
19:00 +26°C° 0 mm 3 mps 749 mmHg 71%
20:00 +25°C° 0 mm 3 mps 749 mmHg 76%
21:00 +24°C° 0 mm 3 mps 749 mmHg 79%
22:00 +22°C° 0 mm 3 mps 749 mmHg 83%
23:00 +21°C° 0 mm 3 mps 749 mmHg 86%

21 June, Monday

Time Temperature Precipitation Wind Pressure Humidity
00:00 +20°C° 0 mm 2 mps 749 mmHg 88%
01:00 +20°C° 0 mm 2 mps 749 mmHg 90%
02:00 +19°C° 0 mm 2 mps 749 mmHg 92%
03:00 +19°C° 0 mm 2 mps 749 mmHg 92%
04:00 +19°C° 0 mm 2 mps 749 mmHg 92%
05:00 +19°C° 0 mm 2 mps 749 mmHg 92%
06:00 +20°C° 0 mm 3 mps 749 mmHg 85%
07:00 +22°C° 0 mm 3 mps 749 mmHg 78%
08:00 +25°C° 0 mm 3 mps 749 mmHg 71%
09:00 +26°C° 0 mm 4 mps 749 mmHg 67%
10:00 +27°C° 0 mm 4 mps 749 mmHg 62%
11:00 +28°C° 0 mm 5 mps 749 mmHg 58%
12:00 +29°C° 0 mm 5 mps 748 mmHg 56%
13:00 +29°C° 0 mm 4 mps 748 mmHg 53%
14:00 +30°C° 0 mm 4 mps 748 mmHg 51%
15:00 +29°C° 0 mm 4 mps 748 mmHg 53%
16:00 +29°C° 0 mm 4 mps 748 mmHg 54%
17:00 +29°C° 0 mm 4 mps 747 mmHg 56%
18:00 +28°C° 0 mm 3 mps 747 mmHg 63%
19:00 +27°C° 0 mm 3 mps 747 mmHg 70%
20:00 +25°C° 0 mm 2 mps 747 mmHg 77%
21:00 +25°C° 0 mm 2 mps 747 mmHg 77%
22:00 +25°C° 0 mm 3 mps 747 mmHg 77%
23:00 +24°C° 0 mm 3 mps 747 mmHg 77%
Show more